| time (UTC) | temp F | wind direction | speed MPH | gust MPH | rain 1hr in | rain 24hr in | rain mn in | humidity % | barometer mb |
| 20260906171438 | 67 | 45 | 0.0 | 0.0 | 0.00 | 0.00 | 0.00 | 1013.9 | |
| 20260906171338 | 67 | 45 | 0.0 | 0.0 | 0.00 | 0.00 | 0.00 | 1014.0 | |
| 20260906171238 | 67 | 45 | 0.0 | 0.0 | 0.00 | 0.00 | 0.00 | 1014.0 | |
| 20260906171138 | 67 | 45 | 0.0 | 0.0 | 0.00 | 0.00 | 0.00 | 1014.0 | |
| 20260906170438 | 66 | 67 | 0.0 | 1.0 | 0.00 | 0.00 | 0.00 | 1014.2 | |
| 20260906165738 | 66 | 135 | 0.0 | 0.0 | 0.00 | 0.00 | 0.00 | 1014.0 | |
| 20260906164738 | 65 | 202 | 1.0 | 2.0 | 0.00 | 0.00 | 0.00 | 1014.3 | |
| 20260906164638 | 65 | 202 | 0.0 | 1.0 | 0.00 | 0.00 | 0.00 | 1014.2 | |
| 20260906164538 | 65 | 292 | 2.0 | 3.0 | 0.00 | 0.00 | 0.00 | 1014.2 | |
| 20260906163538 | 66 | 202 | 2.0 | 3.0 | 0.00 | 0.00 | 0.00 | 1014.3 | |
| 20260906163438 | 66 | 225 | 3.0 | 4.0 | 0.00 | 0.00 | 0.00 | 1014.2 | |
| 20260906163338 | 66 | 225 | 3.0 | 4.0 | 0.00 | 0.00 | 0.00 | 1014.1 | |
| 20260906162638 | 66 | 202 | 2.0 | 4.0 | 0.00 | 0.00 | 0.00 | 1013.9 | |
| 20260906160738 | 66 | 292 | 2.0 | 2.0 | 0.00 | 0.00 | 0.00 | 1013.6 | |
| 20260906160338 | 66 | 315 | 1.0 | 2.0 | 0.00 | 0.00 | 0.00 | 1013.3 | |
| 20260906160238 | 66 | 337 | 1.0 | 2.0 | 0.00 | 0.00 | 0.00 | 1013.5 | |
| 20260906160138 | 66 | 337 | 1.0 | 2.0 | 0.00 | 0.00 | 0.00 | 1013.4 | |
| 20260906160038 | 66 | 292 | 1.0 | 2.0 | 0.00 | 0.00 | 0.00 | 1013.3 | |
| 20260906155938 | 66 | 315 | 1.0 | 1.0 | 0.00 | 0.00 | 0.00 | 1013.3 | |
| 20260906155238 | 66 | 247 | 1.0 | 1.0 | 0.00 | 0.00 | 0.00 | 1013.0 | |
| 20260906154239 | 66 | 225 | 1.0 | 2.0 | 0.00 | 0.00 | 0.00 | 1012.5 | |
| 20260906154138 | 66 | 180 | 0.0 | 0.0 | 0.00 | 0.00 | 0.00 | 1012.6 | |
| 20260906153738 | 66 | 135 | 0.0 | 0.0 | 0.00 | 0.00 | 0.00 | 1012.3 | |
| 20260906153338 | 66 | 112 | 0.0 | 1.0 | 0.00 | 0.00 | 0.00 | 1011.9 | |
| 20260906153238 | 66 | 112 | 0.0 | 0.0 | 0.00 | 0.00 | 0.00 | 1012.0 | |
| 20260906153138 | 66 | 112 | 0.0 | 0.0 | 0.00 | 0.00 | 0.00 | 1012.0 | |
| 20260906152439 | 65 | 180 | 0.0 | 1.0 | 0.00 | 0.00 | 0.00 | 1012.0 | |
| 20260906151738 | 65 | 270 | 0.0 | 0.0 | 0.00 | 0.00 | 0.00 | 1011.8 | |
| 20260906151038 | 65 | 315 | 2.0 | 3.0 | 0.00 | 0.00 | 0.00 | 1012.2 | |
| 20260906150638 | 65 | 90 | 0.0 | 0.0 | 0.00 | 0.00 | 0.00 | 1012.1 | |
| 20260906145940 | 64 | 45 | 2.0 | 3.0 | 0.00 | 0.00 | 0.00 | 1012.2 | |
| 20260906145839 | 64 | 22 | 2.0 | 3.0 | 0.00 | 0.00 | 0.00 | 1012.2 | |
| 20260906145438 | 64 | 337 | 1.0 | 2.0 | 0.00 | 0.00 | 0.00 | 1012.4 | |
| 20260906145339 | 64 | 337 | 1.0 | 2.0 | 0.00 | 0.00 | 0.00 | 1012.3 | |
| 20260906144038 | 64 | 112 | 2.0 | 2.0 | 0.00 | 0.00 | 0.00 | 1012.4 | |
| 20260906143940 | 64 | 135 | 2.0 | 3.0 | 0.00 | 0.00 | 0.00 | 1012.4 | |
| 20260906143838 | 64 | 135 | 1.0 | 2.0 | 0.00 | 0.00 | 0.00 | 1012.4 | |
| 20260906143739 | 64 | 112 | 1.0 | 2.0 | 0.00 | 0.00 | 0.00 | 1012.2 | |
| 20260906143339 | 64 | 112 | 1.0 | 2.0 | 0.00 | 0.00 | 0.00 | 1012.1 | |
| 20260906143238 | 64 | 157 | 1.0 | 2.0 | 0.00 | 0.00 | 0.00 | 1012.3 | |
| 20260906143140 | 64 | 135 | 1.0 | 2.0 | 0.00 | 0.00 | 0.00 | 1012.2 | |
| 20260906141838 | 64 | 45 | 1.0 | 2.0 | 0.00 | 0.00 | 0.00 | 1011.9 | |
| 20260906141738 | 64 | 22 | 0.0 | 1.0 | 0.00 | 0.00 | 0.00 | 1012.0 | |
| 20260906141638 | 63 | 0 | 0.0 | 0.0 | 0.00 | 0.00 | 0.00 | 1012.0 | |
| 20260906141538 | 64 | 90 | 0.0 | 1.0 | 0.00 | 0.00 | 0.00 | 1012.2 | |
| 20260906141138 | 64 | 90 | 2.0 | 4.0 | 0.00 | 0.00 | 0.00 | 1012.2 | |
| 20260906141038 | 64 | 67 | 2.0 | 4.0 | 0.00 | 0.00 | 0.00 | 1012.0 | |
| 20260906140938 | 64 | 67 | 3.0 | 5.0 | 0.00 | 0.00 | 0.00 | 1012.0 | |
| 20260906140838 | 64 | 45 | 3.0 | 5.0 | 0.00 | 0.00 | 0.00 | 1012.3 | |
| 20260906140738 | 64 | 45 | 2.0 | 2.0 | 0.00 | 0.00 | 0.00 | 1012.3 | |
| 20260906140638 | 64 | 45 | 0.0 | 1.0 | 0.00 | 0.00 | 0.00 | 1012.4 | |
| 20260906140238 | 64 | 45 | 0.0 | 0.0 | 0.00 | 0.00 | 0.00 | 1012.4 | |
| 20260906140138 | 64 | 112 | 0.0 | 0.0 | 0.00 | 0.00 | 0.00 | 1012.5 | |
| 20260906135738 | 64 | 45 | 0.0 | 1.0 | 0.00 | 0.00 | 0.00 | 1012.4 | |
| 20260906135338 | 64 | 45 | 0.0 | 1.0 | 0.00 | 0.00 | 0.00 | 1012.6 | |
| 20260906134938 | 64 | 67 | 0.0 | 0.0 | 0.00 | 0.00 | 0.00 | 1012.5 | |
| 20260906134838 | 64 | 67 | 0.0 | 0.0 | 0.00 | 0.00 | 0.00 | 1012.6 | |
| 20260906134438 | 64 | 337 | 0.0 | 0.0 | 0.00 | 0.00 | 0.00 | 1012.4 | |
| 20260906133738 | 64 | 45 | 3.0 | 3.0 | 0.00 | 0.00 | 0.00 | 1012.3 | |
| 20260906133338 | 64 | 315 | 1.0 | 1.0 | 0.00 | 0.00 | 0.00 | 1012.5 | |
| 20260906132638 | 64 | 292 | 2.0 | 3.0 | 0.00 | 0.00 | 0.00 | 1012.2 | |
| 20260906131338 | 64 | 202 | 0.0 | 0.0 | 0.00 | 0.00 | 0.00 | 1012.4 | |
| 20260906130638 | 64 | 270 | 0.0 | 0.0 | 0.00 | 0.00 | 0.00 | 1012.4 | |
| 20260906130238 | 64 | 292 | 0.0 | 1.0 | 0.00 | 0.00 | 0.00 | 1012.5 | |
| 20260906124338 | 67 | 292 | 4.0 | 6.0 | 0.00 | 0.00 | 0.00 | 1012.2 | |
| 20260906122138 | 69 | 135 | 0.0 | 0.0 | 0.00 | 0.00 | 0.00 | 1011.2 | |
| 20260906122038 | 69 | 135 | 0.0 | 0.0 | 0.00 | 0.00 | 0.00 | 1011.1 | |
| 20260906121638 | 69 | 337 | 1.0 | 2.0 | 0.00 | 0.00 | 0.00 | 1010.7 | |
| 20260906121538 | 70 | 315 | 1.0 | 2.0 | 0.00 | 0.00 | 0.00 | 1010.8 | |
| 20260906121438 | 70 | 315 | 0.0 | 0.0 | 0.00 | 0.00 | 0.00 | 1010.8 | |
| 20260906121338 | 70 | 337 | 0.0 | 0.0 | 0.00 | 0.00 | 0.00 | 1010.8 | |
| 20260906120938 | 71 | 202 | 0.0 | 0.0 | 0.00 | 0.00 | 0.00 | 1011.0 | |
| 20260906120838 | 71 | 180 | 0.0 | 0.0 | 0.00 | 0.00 | 0.00 | 1010.8 | |
| 20260906120438 | 71 | 202 | 0.0 | 0.0 | 0.00 | 0.00 | 0.00 | 1010.6 | |
| 20260906120338 | 70 | 225 | 0.0 | 0.0 | 0.00 | 0.00 | 0.00 | 1010.6 | |
| 20260906115938 | 70 | 270 | 0.0 | 0.0 | 0.00 | 0.00 | 0.00 | 1010.6 | |
| 20260906114638 | 69 | 247 | 0.0 | 0.0 | 0.00 | 0.00 | 0.00 | 1010.6 | |
| 20260906114238 | 69 | 202 | 0.0 | 0.0 | 0.00 | 0.00 | 0.00 | 1010.8 | |
| 20260906113838 | 70 | 225 | 0.0 | 0.0 | 0.00 | 0.00 | 0.00 | 1010.8 | |
| 20260906113438 | 70 | 202 | 0.0 | 0.0 | 0.00 | 0.00 | 0.00 | 1010.6 | |
| 20260906113038 | 70 | 292 | 0.0 | 0.0 | 0.00 | 0.00 | 0.00 | 1010.3 | |
| 20260906112938 | 70 | 315 | 0.0 | 0.0 | 0.00 | 0.00 | 0.00 | 1010.5 | |
| 20260906112838 | 70 | 315 | 0.0 | 0.0 | 0.00 | 0.00 | 0.00 | 1010.6 | |
| 20260906112738 | 70 | 292 | 0.0 | 0.0 | 0.00 | 0.00 | 0.00 | 1010.5 | |
| 20260906112638 | 70 | 292 | 0.0 | 0.0 | 0.00 | 0.00 | 0.00 | 1010.6 | |
| 20260906112539 | 70 | 292 | 0.0 | 0.0 | 0.00 | 0.00 | 0.00 | 1010.6 | |
| 20260906112438 | 70 | 202 | 0.0 | 0.0 | 0.00 | 0.00 | 0.00 | 1010.6 | |
| 20260906111438 | 70 | 202 | 0.0 | 0.0 | 0.00 | 0.00 | 0.00 | 1010.7 | |
| 20260906110738 | 71 | 315 | 0.0 | 0.0 | 0.00 | 0.00 | 0.00 | 1010.7 | |
| 20260906110038 | 71 | 270 | 0.0 | 0.0 | 0.00 | 0.00 | 0.00 | 1010.8 | |
| 20260906103838 | 71 | 180 | 0.0 | 0.0 | 0.00 | 0.00 | 0.00 | 1010.8 | |
| 20260906103138 | 71 | 157 | 0.0 | 0.0 | 0.00 | 0.00 | 0.00 | 1010.7 | |
| 20260906103038 | 71 | 157 | 0.0 | 0.0 | 0.00 | 0.00 | 0.00 | 1010.7 | |
| 20260906102638 | 71 | 157 | 0.0 | 0.0 | 0.00 | 0.00 | 0.00 | 1010.8 | |
| 20260906102538 | 71 | 157 | 0.0 | 0.0 | 0.00 | 0.00 | 0.00 | 1010.8 | |
| 20260906102138 | 71 | 292 | 0.0 | 0.0 | 0.00 | 0.00 | 0.00 | 1010.7 | |
| 20260906102038 | 71 | 292 | 0.0 | 0.0 | 0.00 | 0.00 | 0.00 | 1010.7 | |
| 20260906101638 | 71 | 315 | 0.0 | 0.0 | 0.00 | 0.00 | 0.00 | 1010.9 | |
| 20260906100338 | 70 | 315 | 0.0 | 0.0 | 0.00 | 0.00 | 0.00 | 1010.8 | |
| 20260906095938 | 70 | 180 | 0.0 | 0.0 | 0.00 | 0.00 | 0.00 | 1010.6 | |
| 20260906095838 | 70 | 135 | 0.0 | 0.0 | 0.00 | 0.00 | 0.00 | 1010.8 | |
| 20260906095738 | 70 | 135 | 0.0 | 0.0 | 0.00 | 0.00 | 0.00 | 1010.8 | |
| 20260906095638 | 70 | 135 | 0.0 | 0.0 | 0.00 | 0.00 | 0.00 | 1010.6 | |
| 20260906095238 | 70 | 157 | 0.0 | 0.0 | 0.00 | 0.00 | 0.00 | 1010.6 | |
| 20260906094838 | 70 | 202 | 0.0 | 0.0 | 0.00 | 0.00 | 0.00 | 1010.4 | |
| 20260906094738 | 69 | 202 | 0.0 | 0.0 | 0.00 | 0.00 | 0.00 | 1010.8 | |
| 20260906093738 | 69 | 202 | 0.0 | 0.0 | 0.00 | 0.00 | 0.00 | 1010.7 | |
| 20260906093338 | 70 | 292 | 0.0 | 0.0 | 0.00 | 0.00 | 0.00 | 1010.5 | |
| 20260906093238 | 69 | 270 | 0.0 | 0.0 | 0.00 | 0.00 | 0.00 | 1010.6 | |
| 20260906093138 | 69 | 292 | 0.0 | 0.0 | 0.00 | 0.00 | 0.00 | 1010.7 | |
| 20260906093038 | 70 | 292 | 0.0 | 0.0 | 0.00 | 0.00 | 0.00 | 1010.7 | |
| 20260906092338 | 69 | 315 | 0.0 | 0.0 | 0.00 | 0.00 | 0.00 | 1010.5 | |
| 20260906091638 | 69 | 315 | 0.0 | 0.0 | 0.00 | 0.00 | 0.00 | 1010.8 | |
| 20260906091538 | 69 | 292 | 0.0 | 0.0 | 0.00 | 0.00 | 0.00 | 1010.8 | |
| 20260906090238 | 68 | 315 | 0.0 | 0.0 | 0.00 | 0.00 | 0.00 | 1010.9 | |
| 20260906085538 | 68 | 270 | 0.0 | 0.0 | 0.00 | 0.00 | 0.00 | 1010.9 | |
| 20260906084838 | 68 | 157 | 0.0 | 0.0 | 0.00 | 0.00 | 0.00 | 1010.9 | |
| 20260906084738 | 68 | 157 | 0.0 | 0.0 | 0.00 | 0.00 | 0.00 | 1010.9 | |
| 20260906084338 | 68 | 157 | 0.0 | 0.0 | 0.00 | 0.00 | 0.00 | 1010.9 | |
| 20260906084238 | 68 | 157 | 0.0 | 0.0 | 0.00 | 0.00 | 0.00 | 1011.0 | |
| 20260906084138 | 68 | 157 | 0.0 | 0.0 | 0.00 | 0.00 | 0.00 | 1011.0 | |
| 20260906083738 | 68 | 157 | 0.0 | 0.0 | 0.00 | 0.00 | 0.00 | 1010.9 | |
| 20260906083338 | 68 | 157 | 0.0 | 0.0 | 0.00 | 0.00 | 0.00 | 1010.9 | |
| 20260906082338 | 68 | 157 | 0.0 | 0.0 | 0.00 | 0.00 | 0.00 | 1011.0 | |
| 20260906081338 | 68 | 292 | 0.0 | 0.0 | 0.00 | 0.00 | 0.00 | 1011.1 | |
| 20260906080638 | 68 | 270 | 0.0 | 0.0 | 0.00 | 0.00 | 0.00 | 1011.1 | |
| 20260906080538 | 68 | 315 | 0.0 | 0.0 | 0.00 | 0.00 | 0.00 | 1011.2 | |
| 20260906080138 | 68 | 337 | 0.0 | 0.0 | 0.00 | 0.00 | 0.00 | 1011.1 | |
| 20260906080038 | 68 | 0 | 0.0 | 0.0 | 0.00 | 0.00 | 0.00 | 1011.2 | |
| 20260906075938 | 68 | 315 | 0.0 | 0.0 | 0.00 | 0.00 | 0.00 | 1011.3 | |
| 20260906075538 | 68 | 315 | 0.0 | 0.0 | 0.00 | 0.00 | 0.00 | 1011.1 | |
| 20260906073638 | 66 | 202 | 0.0 | 0.0 | 0.00 | 0.00 | 0.00 | 1011.3 | |
| 20260906073538 | 66 | 202 | 0.0 | 0.0 | 0.00 | 0.00 | 0.00 | 1011.1 | |
| 20260906073438 | 66 | 202 | 0.0 | 0.0 | 0.00 | 0.00 | 0.00 | 1011.0 | |
| 20260906072438 | 66 | 292 | 0.0 | 0.0 | 0.00 | 0.00 | 0.00 | 1011.1 | |
| 20260906072338 | 66 | 292 | 0.0 | 0.0 | 0.00 | 0.00 | 0.00 | 1011.0 | |
| 20260906072238 | 67 | 292 | 0.0 | 0.0 | 0.00 | 0.00 | 0.00 | 1011.2 | |
| 20260906072138 | 67 | 292 | 0.0 | 0.0 | 0.00 | 0.00 | 0.00 | 1011.0 | |
| 20260906072038 | 67 | 292 | 0.0 | 0.0 | 0.00 | 0.00 | 0.00 | 1011.2 | |
| 20260906071938 | 67 | 292 | 0.0 | 0.0 | 0.00 | 0.00 | 0.00 | 1011.1 | |
| 20260906071838 | 67 | 292 | 0.0 | 0.0 | 0.00 | 0.00 | 0.00 | 1011.1 | |
| 20260906071738 | 67 | 315 | 0.0 | 0.0 | 0.00 | 0.00 | 0.00 | 1011.1 | |
| 20260906071638 | 67 | 315 | 0.0 | 0.0 | 0.00 | 0.00 | 0.00 | 1011.1 | |
| 20260906071538 | 67 | 315 | 0.0 | 0.0 | 0.00 | 0.00 | 0.00 | 1011.0 | |
| 20260906071438 | 67 | 315 | 0.0 | 0.0 | 0.00 | 0.00 | 0.00 | 1011.0 | |
| 20260906071338 | 67 | 315 | 0.0 | 0.0 | 0.00 | 0.00 | 0.00 | 1011.0 | |
| 20260906070039 | 67 | 22 | 0.0 | 0.0 | 0.00 | 0.00 | 0.00 | 1011.0 | |
| 20260906065938 | 67 | 90 | 0.0 | 0.0 | 0.00 | 0.00 | 0.00 | 1010.9 | |
| 20260906065838 | 67 | 90 | 0.0 | 0.0 | 0.00 | 0.00 | 0.00 | 1011.0 | |
| 20260906065738 | 67 | 90 | 0.0 | 0.0 | 0.00 | 0.00 | 0.00 | 1010.9 | |
| 20260906065338 | 67 | 90 | 0.0 | 0.0 | 0.00 | 0.00 | 0.00 | 1011.2 | |
| 20260906064938 | 67 | 67 | 0.0 | 0.0 | 0.00 | 0.00 | 0.00 | 1011.0 | |
| 20260906063638 | 67 | 337 | 0.0 | 0.0 | 0.00 | 0.00 | 0.00 | 1011.0 | |
| 20260906063538 | 67 | 337 | 0.0 | 0.0 | 0.00 | 0.00 | 0.00 | 1011.1 | |
| 20260906062838 | 68 | 292 | 0.0 | 0.0 | 0.00 | 0.00 | 0.00 | 1011.0 | |
| 20260906062738 | 68 | 292 | 0.0 | 0.0 | 0.00 | 0.00 | 0.00 | 1011.0 | |
| 20260906062638 | 68 | 292 | 0.0 | 0.0 | 0.00 | 0.00 | 0.00 | 1011.1 | |
| 20260906062538 | 68 | 292 | 0.0 | 0.0 | 0.00 | 0.00 | 0.00 | 1011.1 | |
| 20260906062138 | 68 | 225 | 0.0 | 0.0 | 0.00 | 0.00 | 0.00 | 1011.0 | |
| 20260906060838 | 68 | 225 | 0.0 | 0.0 | 0.00 | 0.00 | 0.00 | 1011.2 | |
| 20260906060138 | 68 | 247 | 0.0 | 0.0 | 0.00 | 0.00 | 0.00 | 1011.1 | |
| 20260906055738 | 68 | 247 | 0.0 | 0.0 | 0.00 | 0.00 | 0.00 | 1011.0 | |
| 20260906055338 | 68 | 247 | 0.0 | 0.0 | 0.00 | 0.00 | 0.00 | 1011.3 | |
| 20260906054938 | 68 | 292 | 0.0 | 0.0 | 0.00 | 0.00 | 0.00 | 1011.1 | |
| 20260906054538 | 68 | 0 | 0.0 | 0.0 | 0.00 | 0.00 | 0.00 | 1011.2 | |
| 20260906053238 | 69 | 180 | 0.0 | 0.0 | 0.00 | 0.00 | 0.00 | 1011.3 | |
| 20260906053138 | 69 | 292 | 0.0 | 0.0 | 0.00 | 0.00 | 0.00 | 1011.1 | |
| 20260906052738 | 69 | 67 | 0.0 | 0.0 | 0.00 | 0.00 | 0.00 | 1011.2 | |
| 20260906051438 | 69 | 67 | 0.0 | 0.0 | 0.00 | 0.00 | 0.00 | 1011.2 | |
| 20260906051338 | 69 | 45 | 0.0 | 0.0 | 0.00 | 0.00 | 0.00 | 1011.2 | |
| 20260906050938 | 70 | 45 | 0.0 | 0.0 | 0.00 | 0.00 | 0.00 | 1011.1 | |
| 20260906050838 | 70 | 45 | 0.0 | 0.0 | 0.00 | 0.00 | 0.00 | 1011.1 | |
| 20260906050438 | 70 | 45 | 0.0 | 0.0 | 0.00 | 0.00 | 0.00 | 1011.1 | |
| 20260906050339 | 70 | 45 | 0.0 | 0.0 | 0.00 | 0.00 | 0.00 | 1011.1 | |
| 20260906044738 | 70 | 202 | 0.0 | 0.0 | 0.00 | 0.00 | 0.00 | 1011.2 | |
| 20260906044638 | 70 | 202 | 0.0 | 0.0 | 0.00 | 0.00 | 0.00 | 1011.1 | |
| 20260906044538 | 71 | 202 | 0.0 | 0.0 | 0.00 | 0.00 | 0.00 | 1011.4 | |
| 20260906043538 | 71 | 202 | 0.0 | 0.0 | 0.00 | 0.00 | 0.00 | 1011.3 | |
| 20260906043438 | 71 | 202 | 0.0 | 0.0 | 0.00 | 0.00 | 0.00 | 1011.3 | |
| 20260906043038 | 72 | 225 | 0.0 | 0.0 | 0.00 | 0.00 | 0.00 | 1011.3 | |
| 20260906040238 | 74 | 135 | 0.0 | 0.0 | 0.00 | 0.00 | 0.00 | 1011.0 | |
| 20260906040138 | 74 | 135 | 0.0 | 0.0 | 0.00 | 0.00 | 0.00 | 1011.0 | |
| 20260906040039 | 74 | 135 | 0.0 | 0.0 | 0.00 | 0.00 | 0.00 | 1011.0 | |
| 20260906035338 | 75 | 225 | 0.0 | 0.0 | 0.00 | 0.00 | 0.00 | 1011.0 | |
| 20260906035238 | 75 | 180 | 1.0 | 1.0 | 0.00 | 0.00 | 0.00 | 1010.9 | |
| 20260906035138 | 75 | 247 | 0.0 | 0.0 | 0.00 | 0.00 | 0.00 | 1010.9 | |
| 20260906035038 | 75 | 202 | 0.0 | 0.0 | 0.00 | 0.00 | 0.00 | 1010.9 | |
| 20260906034638 | 75 | 202 | 0.0 | 0.0 | 0.00 | 0.00 | 0.00 | 1010.9 | |
| 20260906034538 | 75 | 180 | 0.0 | 1.0 | 0.00 | 0.00 | 0.00 | 1011.0 | |
| 20260906034438 | 75 | 180 | 0.0 | 0.0 | 0.00 | 0.00 | 0.00 | 1010.9 | |
| 20260906034338 | 75 | 202 | 1.0 | 2.0 | 0.00 | 0.00 | 0.00 | 1010.9 | |
| 20260906034238 | 75 | 202 | 0.0 | 0.0 | 0.00 | 0.00 | 0.00 | 1010.8 | |
| 20260906033838 | 75 | 112 | 0.0 | 0.0 | 0.00 | 0.00 | 0.00 | 1010.9 | |
| 20260906033438 | 75 | 112 | 0.0 | 0.0 | 0.00 | 0.00 | 0.00 | 1010.9 | |
| 20260906033338 | 76 | 202 | 1.0 | 2.0 | 0.00 | 0.00 | 0.00 | 1010.9 | |
| 20260906033238 | 76 | 247 | 1.0 | 3.0 | 0.00 | 0.00 | 0.00 | 1010.9 | |
| 20260906032838 | 76 | 157 | 0.0 | 0.0 | 0.00 | 0.00 | 0.00 | 1010.7 | |
| 20260906032738 | 76 | 157 | 0.0 | 0.0 | 0.00 | 0.00 | 0.00 | 1010.9 | |
| 20260906032638 | 76 | 157 | 0.0 | 0.0 | 0.00 | 0.00 | 0.00 | 1010.7 | |
| 20260906032538 | 77 | 247 | 0.0 | 0.0 | 0.00 | 0.00 | 0.00 | 1010.7 | |
| 20260906032138 | 77 | 157 | 0.0 | 0.0 | 0.00 | 0.00 | 0.00 | 1010.8 | |
| 20260906031738 | 77 | 157 | 0.0 | 0.0 | 0.00 | 0.00 | 0.00 | 1010.8 | |
| 20260906031338 | 78 | 225 | 0.0 | 0.0 | 0.00 | 0.00 | 0.00 | 1010.8 | |
| 20260906030938 | 78 | 180 | 0.0 | 0.0 | 0.00 | 0.00 | 0.00 | 1010.6 | |
| 20260906030238 | 78 | 225 | 0.0 | 1.0 | 0.00 | 0.00 | 0.00 | 1010.6 | |
| 20260906030138 | 78 | 225 | 0.0 | 0.0 | 0.00 | 0.00 | 0.00 | 1010.8 | |
| 20260906030039 | 78 | 202 | 0.0 | 0.0 | 0.00 | 0.00 | 0.00 | 1010.4 | |
| 20260906025638 | 79 | 202 | 0.0 | 0.0 | 0.00 | 0.00 | 0.00 | 1010.5 | |
| 20260906025238 | 79 | 202 | 1.0 | 2.0 | 0.00 | 0.00 | 0.00 | 1010.8 | |
| 20260906024838 | 79 | 225 | 2.0 | 3.0 | 0.00 | 0.00 | 0.00 | 1010.5 | |
| 20260906024738 | 79 | 225 | 1.0 | 2.0 | 0.00 | 0.00 | 0.00 | 1010.5 | |
| 20260906024638 | 80 | 225 | 1.0 | 2.0 | 0.00 | 0.00 | 0.00 | 1010.6 | |
| 20260906024538 | 80 | 225 | 1.0 | 2.0 | 0.00 | 0.00 | 0.00 | 1010.5 | |
| 20260906024138 | 80 | 225 | 0.0 | 2.0 | 0.00 | 0.00 | 0.00 | 1010.5 | |
| 20260906022838 | 81 | 180 | 1.0 | 3.0 | 0.00 | 0.00 | 0.00 | 1010.6 | |
| 20260906022438 | 81 | 180 | 2.0 | 4.0 | 0.00 | 0.00 | 0.00 | 1010.5 | |
| 20260906022338 | 81 | 225 | 3.0 | 4.0 | 0.00 | 0.00 | 0.00 | 1010.4 | |
| 20260906021938 | 81 | 202 | 2.0 | 3.0 | 0.00 | 0.00 | 0.00 | 1010.4 | |
| 20260906021538 | 81 | 225 | 2.0 | 5.0 | 0.00 | 0.00 | 0.00 | 1010.4 | |
| 20260906020838 | 82 | 225 | 2.0 | 4.0 | 0.00 | 0.00 | 0.00 | 1010.3 | |
| 20260906020738 | 82 | 225 | 1.0 | 2.0 | 0.00 | 0.00 | 0.00 | 1010.5 | |
| 20260906020338 | 82 | 225 | 3.0 | 4.0 | 0.00 | 0.00 | 0.00 | 1010.5 | |
| 20260906020238 | 82 | 202 | 0.0 | 1.0 | 0.00 | 0.00 | 0.00 | 1010.4 | |
| 20260906020138 | 82 | 157 | 0.0 | 1.0 | 0.00 | 0.00 | 0.00 | 1010.4 | |
| 20260906020038 | 82 | 180 | 2.0 | 5.0 | 0.00 | 0.00 | 0.00 | 1010.4 | |
| 20260906015938 | 82 | 225 | 1.0 | 3.0 | 0.00 | 0.00 | 0.00 | 1010.3 | |
| 20260906015838 | 82 | 225 | 3.0 | 4.0 | 0.00 | 0.00 | 0.00 | 1010.2 | |
| 20260906015738 | 83 | 202 | 2.0 | 3.0 | 0.00 | 0.00 | 0.00 | 1010.2 | |
| 20260906015638 | 83 | 247 | 0.0 | 2.0 | 0.00 | 0.00 | 0.00 | 1010.4 | |
| 20260906013738 | 84 | 225 | 2.0 | 4.0 | 0.00 | 0.00 | 0.00 | 1010.3 | |
| 20260906013638 | 84 | 225 | 3.0 | 4.0 | 0.00 | 0.00 | 0.00 | 1010.3 | |
| 20260906012638 | 86 | 202 | 1.0 | 3.0 | 0.00 | 0.00 | 0.00 | 1010.1 | |
| 20260906012538 | 86 | 135 | 2.0 | 4.0 | 0.00 | 0.00 | 0.00 | 1010.0 | |
| 20260906012438 | 86 | 247 | 1.0 | 2.0 | 0.00 | 0.00 | 0.00 | 1010.0 | |
| 20260906012338 | 86 | 202 | 3.0 | 5.0 | 0.00 | 0.00 | 0.00 | 1010.1 | |
| 20260906010138 | 87 | 180 | 2.0 | 4.0 | 0.00 | 0.00 | 0.00 | 1010.1 | |
| 20260906005438 | 87 | 202 | 1.0 | 3.0 | 0.00 | 0.00 | 0.00 | 1010.3 | |
| 20260906005038 | 87 | 202 | 1.0 | 3.0 | 0.00 | 0.00 | 0.00 | 1009.9 | |
| 20260906004638 | 88 | 202 | 1.0 | 3.0 | 0.00 | 0.00 | 0.00 | 1010.1 | |
| 20260906004538 | 88 | 180 | 1.0 | 2.0 | 0.00 | 0.00 | 0.00 | 1010.0 | |
| 20260906004438 | 88 | 202 | 2.0 | 3.0 | 0.00 | 0.00 | 0.00 | 1009.9 | |
| 20260906004038 | 88 | 112 | 0.0 | 1.0 | 0.00 | 0.00 | 0.00 | 1010.1 | |
| 20260906003938 | 88 | 202 | 1.0 | 2.0 | 0.00 | 0.00 | 0.00 | 1010.2 | |
| 20260906003538 | 88 | 67 | 1.0 | 2.0 | 0.00 | 0.00 | 0.00 | 1010.2 | |
| 20260906003438 | 88 | 180 | 1.0 | 2.0 | 0.00 | 0.00 | 0.00 | 1010.1 | |
| 20260906003038 | 88 | 157 | 0.0 | 2.0 | 0.00 | 0.00 | 0.00 | 1010.2 | |
| 20260906002639 | 88 | 180 | 1.0 | 2.0 | 0.00 | 0.00 | 0.00 | 1010.1 | |
| 20260906001938 | 88 | 270 | 0.0 | 1.0 | 0.00 | 0.00 | 0.00 | 1010.1 | |
| 20260906001838 | 88 | 157 | 1.0 | 2.0 | 0.00 | 0.00 | 0.00 | 1010.1 | |
| 20260906001738 | 88 | 202 | 1.0 | 3.0 | 0.00 | 0.00 | 0.00 | 1010.1 | |
| 20260906001638 | 88 | 315 | 1.0 | 2.0 | 0.00 | 0.00 | 0.00 | 1010.1 | |
| 20260906001538 | 88 | 112 | 1.0 | 2.0 | 0.00 | 0.00 | 0.00 | 1010.1 | |
| 20260906001438 | 88 | 247 | 2.0 | 5.0 | 0.00 | 0.00 | 0.00 | 1010.1 | |
| 20260906001338 | 89 | 247 | 2.0 | 4.0 | 0.00 | 0.00 | 0.00 | 1010.1 | |
| 20260906001238 | 89 | 157 | 2.0 | 3.0 | 0.00 | 0.00 | 0.00 | 1010.1 | |
| 20260906000838 | 89 | 157 | 1.0 | 2.0 | 0.00 | 0.00 | 0.00 | 1010.2 | |
| 20260905235838 | 89 | 315 | 2.0 | 3.0 | 0.00 | 0.00 | 0.00 | 1010.2 | |
| 20260905234538 | 90 | 157 | 1.0 | 2.0 | 0.00 | 0.00 | 0.00 | 1009.9 | |
| 20260905234438 | 89 | 157 | 2.0 | 4.0 | 0.00 | 0.00 | 0.00 | 1009.9 | |
| 20260905234038 | 89 | 180 | 0.0 | 1.0 | 0.00 | 0.00 | 0.00 | 1010.1 | |
| 20260905233938 | 89 | 315 | 1.0 | 2.0 | 0.00 | 0.00 | 0.00 | 1009.9 | |
| 20260905233538 | 90 | 202 | 1.0 | 3.0 | 0.00 | 0.00 | 0.00 | 1010.3 | |
| 20260905230738 | 92 | 225 | 1.0 | 2.0 | 0.00 | 0.00 | 0.00 | 1010.0 | |
| 20260905230038 | 93 | 225 | 4.0 | 5.0 | 0.00 | 0.00 | 0.00 | 1009.9 | |
| 20260905225638 | 93 | 202 | 1.0 | 2.0 | 0.00 | 0.00 | 0.00 | 1010.0 | |
| 20260905223738 | 99 | 202 | 2.0 | 4.0 | 0.00 | 0.00 | 0.00 | 1010.4 | |
| 20260905223638 | 99 | 315 | 0.0 | 2.0 | 0.00 | 0.00 | 0.00 | 1010.3 | |
| 20260905222938 | 97 | 202 | 1.0 | 3.0 | 0.00 | 0.00 | 0.00 | 1010.4 | |
| 20260905222838 | 97 | 180 | 2.0 | 4.0 | 0.00 | 0.00 | 0.00 | 1010.4 | |
| 20260905222738 | 96 | 315 | 2.0 | 4.0 | 0.00 | 0.00 | 0.00 | 1010.4 | |
| 20260905222638 | 96 | 180 | 1.0 | 2.0 | 0.00 | 0.00 | 0.00 | 1010.4 | |
| 20260905222238 | 95 | 337 | 2.0 | 3.0 | 0.00 | 0.00 | 0.00 | 1010.6 | |
| 20260905220638 | 98 | 292 | 3.0 | 6.0 | 0.00 | 0.00 | 0.00 | 1010.6 | |
| 20260905220238 | 98 | 315 | 1.0 | 1.0 | 0.00 | 0.00 | 0.00 | 1010.6 | |
| 20260905215838 | 98 | 337 | 2.0 | 2.0 | 0.00 | 0.00 | 0.00 | 1010.7 | |
| 20260905215738 | 98 | 337 | 1.0 | 3.0 | 0.00 | 0.00 | 0.00 | 1010.6 | |
| 20260905215338 | 98 | 135 | 2.0 | 3.0 | 0.00 | 0.00 | 0.00 | 1010.7 | |
| 20260905215238 | 97 | 225 | 2.0 | 5.0 | 0.00 | 0.00 | 0.00 | 1010.5 | |
| 20260905214238 | 98 | 337 | 5.0 | 10.0 | 0.00 | 0.00 | 0.00 | 1010.9 | |
| 20260905214138 | 99 | 247 | 4.0 | 8.0 | 0.00 | 0.00 | 0.00 | 1010.8 | |
| 20260905213438 | 100 | 337 | 3.0 | 5.0 | 0.00 | 0.00 | 0.00 | 1010.8 | |
| 20260905213338 | 100 | 315 | 3.0 | 5.0 | 0.00 | 0.00 | 0.00 | 1010.9 | |
| 20260905212638 | 100 | 180 | 2.0 | 3.0 | 0.00 | 0.00 | 0.00 | 1010.9 | |
| 20260905212538 | 100 | 180 | 2.0 | 5.0 | 0.00 | 0.00 | 0.00 | 1011.0 | |
| 20260905212438 | 100 | 315 | 2.0 | 4.0 | 0.00 | 0.00 | 0.00 | 1011.0 | |
| 20260905212338 | 100 | 135 | 2.0 | 4.0 | 0.00 | 0.00 | 0.00 | 1011.0 | |
| 20260905212238 | 100 | 202 | 2.0 | 5.0 | 0.00 | 0.00 | 0.00 | 1010.9 | |
| 20260905210338 | 95 | 157 | 3.0 | 5.0 | 0.00 | 0.00 | 0.00 | 1010.9 | |
| 20260905205938 | 94 | 315 | 1.0 | 4.0 | 0.00 | 0.00 | 0.00 | 1010.9 | |
| 20260905205838 | 94 | 202 | 5.0 | 6.0 | 0.00 | 0.00 | 0.00 | 1011.1 | |
| 20260905205738 | 94 | 225 | 1.0 | 2.0 | 0.00 | 0.00 | 0.00 | 1011.1 | |
| 20260905205638 | 94 | 180 | 1.0 | 2.0 | 0.00 | 0.00 | 0.00 | 1011.1 | |
| 20260905205238 | 96 | 180 | 1.0 | 3.0 | 0.00 | 0.00 | 0.00 | 1011.1 | |
| 20260905205138 | 96 | 202 | 2.0 | 5.0 | 0.00 | 0.00 | 0.00 | 1011.2 | |
| 20260905205038 | 96 | 180 | 1.0 | 2.0 | 0.00 | 0.00 | 0.00 | 1011.2 | |
| 20260905204638 | 94 | 315 | 1.0 | 2.0 | 0.00 | 0.00 | 0.00 | 1011.3 | |
| 20260905204538 | 94 | 157 | 1.0 | 2.0 | 0.00 | 0.00 | 0.00 | 1011.3 | |
| 20260905204438 | 94 | 270 | 2.0 | 4.0 | 0.00 | 0.00 | 0.00 | 1011.3 | |
| 20260905204338 | 94 | 225 | 3.0 | 5.0 | 0.00 | 0.00 | 0.00 | 1011.3 | |
| 20260905204238 | 93 | 225 | 2.0 | 3.0 | 0.00 | 0.00 | 0.00 | 1011.5 | |
| 20260905204138 | 94 | 292 | 3.0 | 6.0 | 0.00 | 0.00 | 0.00 | 1011.4 | |
| 20260905204038 | 94 | 292 | 4.0 | 6.0 | 0.00 | 0.00 | 0.00 | 1011.3 | |
| 20260905203938 | 94 | 225 | 1.0 | 2.0 | 0.00 | 0.00 | 0.00 | 1011.4 | |
| 20260905203838 | 94 | 135 | 1.0 | 3.0 | 0.00 | 0.00 | 0.00 | 1011.4 | |
| 20260905203738 | 94 | 315 | 2.0 | 2.0 | 0.00 | 0.00 | 0.00 | 1011.4 | |
| 20260905203638 | 93 | 315 | 2.0 | 3.0 | 0.00 | 0.00 | 0.00 | 1011.3 | |
| 20260905202338 | 94 | 135 | 2.0 | 2.0 | 0.00 | 0.00 | 0.00 | 1011.5 | |
| 20260905201338 | 93 | 292 | 1.0 | 2.0 | 0.00 | 0.00 | 0.00 | 1011.9 | |
| 20260905200938 | 93 | 112 | 2.0 | 5.0 | 0.00 | 0.00 | 0.00 | 1011.8 | |
| 20260905200838 | 93 | 135 | 3.0 | 8.0 | 0.00 | 0.00 | 0.00 | 1011.8 | |
| 20260905200438 | 94 | 180 | 3.0 | 5.0 | 0.00 | 0.00 | 0.00 | 1011.7 | |
| 20260905200338 | 94 | 180 | 5.0 | 9.0 | 0.00 | 0.00 | 0.00 | 1011.8 | |
| 20260905200238 | 95 | 225 | 5.0 | 7.0 | 0.00 | 0.00 | 0.00 | 1011.9 | |
| 20260905200138 | 95 | 225 | 2.0 | 4.0 | 0.00 | 0.00 | 0.00 | 1011.7 | |
| 20260905200038 | 95 | 135 | 1.0 | 2.0 | 0.00 | 0.00 | 0.00 | 1011.7 | |
| 20260905195038 | 93 | 202 | 1.0 | 2.0 | 0.00 | 0.00 | 0.00 | 1012.0 | |
| 20260905194338 | 92 | 135 | 2.0 | 2.0 | 0.00 | 0.00 | 0.00 | 1011.9 | |
| 20260905193338 | 92 | 315 | 1.0 | 2.0 | 0.00 | 0.00 | 0.00 | 1012.0 | |
| 20260905193238 | 92 | 180 | 4.0 | 5.0 | 0.00 | 0.00 | 0.00 | 1012.2 | |
| 20260905192838 | 90 | 135 | 1.0 | 3.0 | 0.00 | 0.00 | 0.00 | 1012.1 | |
| 20260905192138 | 89 | 202 | 1.0 | 2.0 | 0.00 | 0.00 | 0.00 | 1012.0 | |
| 20260905192038 | 89 | 157 | 1.0 | 2.0 | 0.00 | 0.00 | 0.00 | 1012.2 | |
| 20260905191938 | 90 | 270 | 1.0 | 2.0 | 0.00 | 0.00 | 0.00 | 1012.2 | |
| 20260905191838 | 90 | 157 | 2.0 | 3.0 | 0.00 | 0.00 | 0.00 | 1012.1 | |
| 20260905191438 | 90 | 135 | 1.0 | 4.0 | 0.00 | 0.00 | 0.00 | 1012.0 | |
| 20260905191038 | 90 | 202 | 2.0 | 4.0 | 0.00 | 0.00 | 0.00 | 1012.1 | |
| 20260905190938 | 90 | 225 | 1.0 | 1.0 | 0.00 | 0.00 | 0.00 | 1012.0 | |
| 20260905190838 | 90 | 247 | 2.0 | 3.0 | 0.00 | 0.00 | 0.00 | 1012.1 | |
| 20260905190138 | 91 | 180 | 1.0 | 2.0 | 0.00 | 0.00 | 0.00 | 1012.4 | |
| 20260905190038 | 91 | 202 | 0.0 | 1.0 | 0.00 | 0.00 | 0.00 | 1012.4 | |
| 20260905184438 | 88 | 225 | 1.0 | 2.0 | 0.00 | 0.00 | 0.00 | 1012.6 | |
| 20260905184338 | 88 | 270 | 0.0 | 1.0 | 0.00 | 0.00 | 0.00 | 1012.7 | |
| 20260905184238 | 88 | 270 | 2.0 | 4.0 | 0.00 | 0.00 | 0.00 | 1012.7 | |
| 20260905184138 | 89 | 225 | 1.0 | 1.0 | 0.00 | 0.00 | 0.00 | 1012.8 | |
| 20260905184038 | 89 | 180 | 1.0 | 2.0 | 0.00 | 0.00 | 0.00 | 1012.8 | |
| 20260905180938 | 86 | 135 | 1.0 | 2.0 | 0.00 | 0.00 | 0.00 | 1013.3 | |
| 20260905180838 | 86 | 315 | 1.0 | 2.0 | 0.00 | 0.00 | 0.00 | 1013.1 | |
| 20260905180138 | 85 | 157 | 1.0 | 2.0 | 0.00 | 0.00 | 0.00 | 1013.1 | |
| 20260905175738 | 84 | 315 | 1.0 | 2.0 | 0.00 | 0.00 | 0.00 | 1013.2 | |
| 20260905174738 | 82 | 292 | 3.0 | 4.0 | 0.00 | 0.00 | 0.00 | 1013.1 | |
| 20260905174638 | 82 | 337 | 1.0 | 2.0 | 0.00 | 0.00 | 0.00 | 1013.1 | |
| 20260905174538 | 82 | 315 | 2.0 | 2.0 | 0.00 | 0.00 | 0.00 | 1013.1 | |
| 20260905174438 | 82 | 22 | 1.0 | 2.0 | 0.00 | 0.00 | 0.00 | 1013.2 | |
| 20260905174038 | 81 | 202 | 2.0 | 2.0 | 0.00 | 0.00 | 0.00 | 1013.0 | |
| 20260905173938 | 81 | 225 | 2.0 | 2.0 | 0.00 | 0.00 | 0.00 | 1013.1 | |
| 20260905173838 | 82 | 225 | 1.0 | 2.0 | 0.00 | 0.00 | 0.00 | 1013.1 | |
| 20260905173738 | 82 | 180 | 1.0 | 2.0 | 0.00 | 0.00 | 0.00 | 1013.1 | |
| 20260905173638 | 82 | 225 | 1.0 | 1.0 | 0.00 | 0.00 | 0.00 | 1013.2 | |
| 20260905173538 | 82 | 337 | 0.0 | 2.0 | 0.00 | 0.00 | 0.00 | 1013.0 |